Regional Weather Roundup
Issued by NWS Sioux Falls, SD

Home | Current Version | Previous Version | Text Only | Print | Product List | Glossary Off
Versions: 1 2 3 4 5 6 7 8 9 10 11 12 13 14 15 16 17 18 19 20 21 22 23 24 25 26 27 28 29 30 31 32 33 34 35 36 37 38 39 40 41 42 43 44 45 46 47 48 49 50

000
ASUS43 KFSD 261302
RWRFSD

WEATHER ROUNDUP FOR SE SOUTH DAKOTA/SW MINNESOTA/NW IOWA
NATIONAL WEATHER SERVICE SIOUX FALLS SD
800 AM CDT SAT JUL 26 2014

NOTE: "FAIR" INDICATES FEW OR NO CLOUDS BELOW 12,000 FEET WITH NO
SIGNIFICANT WEATHER AND OR OBSTRUCTIONS TO VISIBILITY.


SDZ038>040-050-052>070-261400-
SOUTHEAST SOUTH DAKOTA

CITY           SKY/WX    TMP DP  RH WIND       PRES   REMARKS
CHAMBERLAIN    PTSUNNY   69  67  93 S12       29.80F
HURON          TSTM      68  66  93 CALM      29.83R
MADISON        CLOUDY    68  68 100 SE5       29.85R
MITCHELL       MOSUNNY   73  69  87 SE12      29.81F
SIOUX FALLS    TSTM      72  69  90 S7        29.83F
WINNER         CLOUDY    73  68  84 SE15      29.81F
YANKTON        PTSUNNY   72  70  94 E6        29.86F
$$

MNZ071-072-080-081-089-090-097-098-261400-
SOUTHWEST MINNESOTA

CITY           SKY/WX    TMP DP  RH WIND       PRES   REMARKS
FAIRMONT       PTSUNNY   70  61  73 N5        29.85S
JACKSON        CLOUDY    70  68  94 SE7       29.86F FOG
LUVERNE        PTSUNNY   70  68  94 SE6       29.82F FOG
MARSHALL       PTSUNNY   70  66  88 SW10      29.84R
MONTEVIDEO     FOG       66  66 100 CALM      29.85R VSB<1/4
PIPESTONE      CLOUDY    70  66  88 CALM      29.88R
REDWOOD FALLS  FOG       68  68 100 E10       29.76F VSB 1/4
TRACY          CLOUDY    70  68  94 S12       29.82R FOG
WINDOM         CLOUDY    72  70  94 E3        29.83F FOG
WORTHINGTON    PTSUNNY   72  68  88 S12       29.89F
$$

IAZ001>003-012>014-020>022-031-032-NEZ013-014-SDZ071-261400-
NORTHWEST IOWA

CITY           SKY/WX    TMP DP  RH WIND       PRES   REMARKS
CHEROKEE       CLOUDY    70  70 100 N7        29.88R FOG
DENISON        FOG       70  70 100 E6        29.81S VSB 1/4
ESTHERVILLE    CLOUDY    71  70  96 NE7       29.85F FOG
LE MARS        PTSUNNY   72  72 100 NE5G12    29.88R FOG
ORANGE CITY    MOSUNNY   73  70  88 SE3       29.85F FOG
SHELDON        MOSUNNY   70  70 100 NE10G17   29.82F FOG
SIOUX CITY     MOSUNNY   74  71  91 NW6       29.88R
SPENCER        MOSUNNY   73  70  90 NE6       29.87R FOG
STORM LAKE     MOSUNNY   70  70 100 N5        29.86R FOG
$$

ABBREVIATIONS USED IN REMARKS
   TC - TEMPERATURE IN CELSIUS
  WCI - WIND CHILL INDEX
   HX - HEAT INDEX
  VSB - VISIBILITY




USA.gov is the U.S. government's official web portal to all federal, state and local government web resources and services.